Preview of NWS' New Version of Forecast
This preview is not operational and should not be used for support decisions.

Regional Weather Roundup (RWR)

Issued by National Weather Service (NWS)

                            
000
ASUS43 KTOP 200208
RWRKS 

WEATHER ROUNDUP FOR KANSAS
NATIONAL WEATHER SERVICE GOODLAND KS
800 PM CST TUE FEB 19 2019

NOTE:  "FAIR" INDICATES FEW OR NO CLOUDS BELOW 12,000 FEET WITH NO
SIGNIFICANT WEATHER AND/OR OBSTRUCTIONS TO VISIBILITY.

KSZ001>006-013>018-027>032-041>047-200300-
NORTHWEST KANSAS
  
CITY           SKY/WX    TMP DP  RH WIND       PRES   REMARKS
GOODLAND       LGT SNOW N/A N/A N/A SE6       29.84F                  
HAYS           LGT SNOW  23  21  93 E10       29.95F FOG     WCI  12  
HILL CITY      LGT SNOW  22  20  92 E10       29.95F FOG     WCI  11  
RUSSELL        CLOUDY    23  23 100 E9        29.95F FOG              
$$

KSZ061>065-074>080-084>089-200300-
SOUTHWEST KANSAS
  
CITY           SKY/WX    TMP DP  RH WIND       PRES   REMARKS
DODGE CITY     CLOUDY    23  20  88 E8        29.88F FOG              
ELKHART        CLOUDY    24  23  95 S8        29.81F                  
GARDEN CITY    CLOUDY    22  20  92 SE12      29.87F FOG     WCI  10  
GREAT BEND     MIX PCPN  25  22  88 E8        29.96F                  
LIBERAL        FLURRIES  22  20  92 SE8       29.87F                  
PRATT          MIX PCPN  26  24  95 E3        29.95F                  
$$

KSZ066>073-081>083-090>101-200300-
SOUTHEAST KANSAS
  
CITY           SKY/WX    TMP DP  RH WIND       PRES   REMARKS
CHANUTE        MIX PCPN  31  28  89 E12       30.00F FOG     WCI  22  
COFFEYVILLE    MIX PCPN  32  31  96 NE6       30.00R FOG              
HUTCHINSON     LGT SNOW  28  27  96 E9        29.98S FOG              
MEDICINE LODGE   N/A     26  24  92 N3        29.95F                  
NEWTON         LGT SNOW  25  24  96 E15G21    29.98S FOG     WCI  13  
PARSONS        FRZ RAIN  32  30  92 E6G17     30.00F FOG              
WICHITA INTL   SNOW      30  28  92 E9        29.97F VSB 1/2          
WICHITA JABRA  LGT SNOW  27  25  92 E9        29.97S FOG              
WICHITA MCCONL LGT SNOW  28  28  99 E10       29.97S FOG     WCI  19  
WINFIELD       LGT SNOW  31  30  96 E6        29.99S FOG              
$$

KSZ007>012-019>026-033>040-048>060-102>105-200300-
NORTHEAST KANSAS
  
CITY           SKY/WX    TMP DP  RH WIND       PRES   REMARKS
CONCORDIA      LGT SNOW  23  22  96 E7G22     29.99S VSB 3/4          
EMPORIA        LGT SNOW  26  26 100 E8        30.03S VSB 3/4          
LAWRENCE       SNOW      27  24  89 E17       30.07F VSB 1/2 WCI  14  
MANHATTAN      LGT SNOW  27  25  92 E15       30.02F VSB 3/4 WCI  15  
MARYSVILLE     RAIN      27  23  86 E17       30.03F WCI  14          
OLATHE IND     LGT SNOW  26  25  96 NE12      30.05F VSB 3/4 WCI  16  
OLATHE EXE     SNOW      26  25  96 E15G25    30.03F VSB 1/2 WCI  14  
SALINA         LGT SNOW  26  26 100 SE6       30.01S VSB 3/4          
TOPEKA BILLARD SNOW      27  24  89 E13       30.06F VSB 1/2 WCI  16  
TOPEKA FORBES  SNOW      27  23  85 E12G25    30.04F VSB 1/2 WCI  17  
$$